Stations météo

réclame
Mon MeteoGroup
Aguilas, Espagne (8432): Température de l'air & dewpoint: 18.02.2018 22:00:00 - 24.02.2018 22:00:00 (CET)Aguilas, Espagne (8432): Vitesse du vent & gusts: 18.02.2018 22:00:00 - 24.02.2018 22:00:00 (CET)Aguilas, Espagne (8432): Direction du vent: 18.02.2018 22:00:00 - 24.02.2018 22:00:00 (CET)Aguilas, Espagne (8432): reduced air pressure: 18.02.2018 22:00:00 - 24.02.2018 22:00:00 (CET)Aguilas, Espagne (8432): visibility: 18.02.2018 22:00:00 - 24.02.2018 22:00:00 (CET)Aguilas, Espagne (8432): Ensoleillement: 18.02.2018 22:00:00 - 24.02.2018 22:00:00 (CET)Aguilas, Espagne (8432): Quantités de précipitations: 18.02.2018 22:00:00 - 24.02.2018 22:00:00 (CET)
Date & Time tt [°C] td [°C] ff [km/h] ff [knt] fx [km/h] fx [knt] dd ppp [hPa] vv [km] sd [min] rr [mm]
24.02.2018 22:00:00 9,9 3,6 4 2 8 4 N 1010,8 20 0 0,0
24.02.2018 21:00:00 10,7 3,8 4 2 9 5 NW 1010,3 20 0 0,0
24.02.2018 20:00:00 12,3 3,8 6 3 16 9 S 1009,8 20 0 0,0
24.02.2018 19:00:00 12,5 3,9 6 3 18 10 S 1009,3 20 19 -
24.02.2018 18:00:00 13,4 3,8 9 5 19 10 SSE 1008,4 20 59 0,0
24.02.2018 17:00:00 14,0 2,9 10 6 22 12 SSE 1007,8 20 60 0,0
24.02.2018 16:00:00 14,3 2,5 11 6 25 13 SSE 1007,5 20 60 0,0
24.02.2018 15:00:00 14,6 1,9 11 6 23 13 SSE 1007,4 20 60 0,0
24.02.2018 14:00:00 14,5 1,7 11 6 23 12 SSE 1007,8 20 60 0,0
24.02.2018 13:00:00 14,0 1,9 10 6 21 12 SSE 1008,2 20 60 -
24.02.2018 12:00:00 14,8 1,1 7 4 14 8 S 1008,2 20 60 0,0
24.02.2018 11:00:00 13,9 -0,3 5 3 11 6 SSE 1008,1 20 60 0,0
24.02.2018 10:00:00 13,7 -0,7 2 1 7 4 WSW 1008,0 20 60 0,0
24.02.2018 09:00:00 9,4 -0,3 1 1 11 6 NW 1007,7 20 60 0,0
24.02.2018 08:00:00 5,4 -1,2 7 4 9 5 NNW 1007,3 20 1 0,0
24.02.2018 07:00:00 5,4 -1,2 4 2 10 6 N 1007,1 20 0 -
24.02.2018 06:00:00 5,6 -1,0 8 5 11 6 NNW 1007,0 20 0 0,0
24.02.2018 05:00:00 5,9 -1,2 2 1 7 4 N 1006,8 20 0 0,0
24.02.2018 04:00:00 7,5 -0,7 6 3 11 6 NE 1006,7 20 0 0,0
24.02.2018 03:00:00 7,6 -2,7 7 4 12 7 NNE 1007,3 20 0 0,0
24.02.2018 02:00:00 6,4 -1,0 3 1 8 4 NNE 1007,6 20 0 0,0
24.02.2018 01:00:00 6,5 0,4 3 1 6 3 NNE 1007,3 20 0 -
24.02.2018 00:00:00 7,2 0,4 4 2 11 6 NW 1007,5 20 0 0,0
23.02.2018 23:00:00 8,7 0,4 4 2 8 4 NE 1007,5 20 0 0,0
23.02.2018 22:00:00 9,1 0,2 4 2 11 6 NNE 1007,4 20 0 0,0
23.02.2018 21:00:00 9,8 0,4 6 4 11 6 NE 1007,2 20 0 0,0
23.02.2018 20:00:00 10,3 0,4 7 4 15 8 NE 1007,0 20 0 0,0
23.02.2018 19:00:00 11,0 0,4 7 4 17 9 E 1006,7 20 24 -
23.02.2018 18:00:00 12,4 -0,3 14 7 22 12 ESE 1006,4 20 60 0,0
23.02.2018 17:00:00 13,3 -0,7 14 8 28 15 ESE 1006,1 20 60 0,0
23.02.2018 16:00:00 13,3 -0,7 16 9 29 15 SE 1006,3 20 60 0,0
23.02.2018 15:00:00 14,0 -2,5 16 9 31 17 ESE 1006,2 20 60 0,0
23.02.2018 14:00:00 13,7 -3,0 18 10 31 17 ESE 1006,3 20 60 0,0
23.02.2018 13:00:00 13,7 -2,7 16 9 27 15 SE 1006,8 20 60 -
23.02.2018 12:00:00 14,2 -1,0 14 8 29 16 ESE 1007,1 20 60 0,0
23.02.2018 11:00:00 13,3 -2,7 9 5 16 9 SE 1007,1 13 60 0,0
23.02.2018 10:00:00 12,7 -6,4 1 1 8 4 WNW 1007,0 20 60 0,0
23.02.2018 09:00:00 8,6 -7,1 4 2 8 5 N 1006,9 20 60 0,0
23.02.2018 08:00:00 6,1 -3,6 3 2 8 4 NNW 1006,5 16 0 0,0
23.02.2018 07:00:00 6,7 -4,5 4 2 10 6 N 1006,4 20 0 -
23.02.2018 06:00:00 7,1 -6,7 3 1 13 7 N 1006,1 20 0 0,0
23.02.2018 05:00:00 7,6 -8,2 3 2 21 11 NNW 1006,1 20 0 0,0
23.02.2018 04:00:00 9,8 -12,2 8 4 18 10 NE 1006,0 20 0 0,0
23.02.2018 03:00:00 9,8 -11,7 10 6 20 11 NE 1006,1 20 0 0,0
23.02.2018 02:00:00 10,8 -12,8 8 4 22 12 NNE 1006,5 20 0 0,0
23.02.2018 01:00:00 10,1 -10,3 8 4 23 13 NNW 1006,6 20 0 -
23.02.2018 00:00:00 9,6 -7,1 6 4 16 9 N 1006,6 20 0 0,0
22.02.2018 23:00:00 10,3 -2,5 8 4 14 8 N 1006,4 20 0 0,0
22.02.2018 22:00:00 10,8 0,2 7 4 14 7 N 1006,1 20 0 0,0
22.02.2018 21:00:00 11,6 4,6 7 4 13 7 N 1005,5 20 0 0,0
22.02.2018 20:00:00 12,8 3,9 6 3 13 7 NNE 1004,9 20 0 0,0
22.02.2018 19:00:00 13,9 4,8 8 4 14 7 ENE 1004,5 20 37 -
22.02.2018 18:00:00 15,1 6,1 10 5 32 17 S 1003,8 20 60 0,0
22.02.2018 17:00:00 15,4 5,6 17 9 32 18 SSW 1003,7 20 60 0,0
22.02.2018 16:00:00 15,8 5,6 18 10 37 20 SSW 1004,0 20 60 0,0
22.02.2018 15:00:00 15,2 5,1 18 10 33 18 S 1005,0 20 60 0,0
22.02.2018 14:00:00 15,0 3,4 18 10 32 17 SSW 1005,9 20 60 0,0
22.02.2018 13:00:00 14,5 3,2 14 8 26 14 SSW 1006,7 20 60 -
22.02.2018 12:00:00 14,2 4,1 12 7 26 14 SSW 1007,4 20 60 0,0
22.02.2018 11:00:00 14,7 2,3 11 6 23 12 WSW 1007,8 20 59 0,0
22.02.2018 10:00:00 13,5 2,1 6 3 15 8 WSW 1008,1 20 60 0,0
22.02.2018 09:00:00 10,7 2,1 5 3 10 5 NNW 1008,4 20 60 0,0
22.02.2018 08:00:00 8,2 2,3 4 2 9 5 N 1008,4 20 1 0,0
22.02.2018 07:00:00 8,0 2,5 3 2 8 4 N 1008,2 20 0 -
22.02.2018 06:00:00 8,3 2,5 3 2 10 5 N 1008,2 20 0 0,0
22.02.2018 05:00:00 9,4 2,9 4 2 9 5 N 1008,2 20 0 0,0
22.02.2018 04:00:00 10,0 3,2 5 3 9 5 N 1008,3 20 0 0,0
22.02.2018 03:00:00 10,4 3,2 3 1 11 6 WNW 1008,6 20 0 0,0
22.02.2018 02:00:00 10,6 3,2 4 2 9 5 NNW 1009,3 20 0 0,0
22.02.2018 01:00:00 10,9 3,0 4 2 8 4 ENE 1009,3 20 0 -
22.02.2018 00:00:00 11,1 3,6 4 2 28 15 E 1009,3 20 0 0,0
21.02.2018 23:00:00 11,4 3,9 17 9 34 18 E 1009,2 20 0 0,0
21.02.2018 22:00:00 11,8 4,3 16 9 30 16 E 1008,6 20 0 0,0
21.02.2018 21:00:00 12,8 5,5 21 11 32 17 E 1007,7 20 0 0,0
21.02.2018 20:00:00 13,4 4,5 12 7 23 13 E 1007,1 20 0 0,0
21.02.2018 19:00:00 13,8 3,2 10 5 24 13 ESE 1006,5 20 6 -
21.02.2018 18:00:00 15,4 3,2 13 7 26 14 ESE 1005,1 20 0 0,0
21.02.2018 17:00:00 17,0 -0,7 7 4 37 20 N 1004,2 20 16 0,0
21.02.2018 16:00:00 17,5 -2,7 19 10 36 20 ENE 1003,9 20 52 0,0
21.02.2018 15:00:00 17,3 -2,0 18 10 40 21 E 1004,3 20 56 0,0
21.02.2018 14:00:00 17,2 -2,0 19 11 35 19 ENE 1005,3 20 28 0,0
21.02.2018 13:00:00 17,7 -2,0 21 11 34 18 ENE 1006,1 20 49 -
21.02.2018 12:00:00 16,0 -2,5 12 7 33 18 N 1006,8 20 49 0,0
21.02.2018 11:00:00 15,5 -3,0 18 10 39 21 N 1007,1 20 59 0,0
21.02.2018 10:00:00 15,0 -3,3 18 10 39 21 N 1007,2 20 60 0,0
21.02.2018 09:00:00 13,4 -3,0 16 9 36 19 N 1007,6 20 60 0,0
21.02.2018 08:00:00 12,7 -3,3 10 6 36 19 N 1008,1 20 2 0,0
21.02.2018 07:00:00 12,4 -3,0 16 9 37 20 NNW 1007,6 20 0 -
21.02.2018 06:00:00 12,9 -2,7 16 9 36 20 NNW 1007,6 20 0 0,0
21.02.2018 05:00:00 12,9 0,0 6 3 23 12 N 1008,3 20 0 0,0
21.02.2018 04:00:00 13,4 0,6 11 6 20 11 NW 1008,6 20 0 0,0
21.02.2018 03:00:00 14,7 0,9 5 3 27 14 WSW 1009,6 20 0 0,0
21.02.2018 02:00:00 16,0 0,4 12 7 34 18 NNW 1010,1 20 0 0,0
21.02.2018 01:00:00 16,1 1,1 14 7 39 21 NNW 1010,7 20 0 -
21.02.2018 00:00:00 15,3 2,5 10 5 19 10 NW 1011,3 20 0 0,0
20.02.2018 23:00:00 15,1 3,2 6 3 16 9 N 1011,7 20 0 0,0
20.02.2018 22:00:00 13,9 6,2 5 3 10 6 N 1011,6 20 0 0,0
20.02.2018 21:00:00 14,1 8,5 5 3 7 4 NNE 1011,9 19 0 0,0
20.02.2018 20:00:00 14,9 9,4 2 1 7 4 ENE 1012,0 16 0 0,0
20.02.2018 19:00:00 15,8 9,7 4 2 7 4 ESE 1012,0 20 18 -
20.02.2018 18:00:00 17,2 9,6 3 2 18 10 S 1012,3 20 60 0,0
20.02.2018 17:00:00 18,1 9,9 6 3 21 11 S 1012,2 20 60 0,0
20.02.2018 16:00:00 18,6 8,3 11 6 24 13 SSW 1012,7 20 60 0,0
20.02.2018 15:00:00 18,5 5,9 9 5 22 12 S 1013,2 20 54 0,0
20.02.2018 14:00:00 18,0 7,7 13 7 29 16 SSW 1013,6 20 60 0,0
20.02.2018 13:00:00 18,5 1,9 11 6 27 14 SSW 1014,2 20 46 -
20.02.2018 12:00:00 19,9 1,3 16 9 37 20 NNW 1014,7 20 60 0,0
20.02.2018 11:00:00 18,7 1,7 16 8 37 20 NW 1015,4 20 60 0,0
20.02.2018 10:00:00 17,2 2,7 3 2 10 5 WSW 1015,8 20 60 0,0
20.02.2018 09:00:00 12,0 6,1 2 1 9 5 SW 1015,6 20 46 0,0
20.02.2018 08:00:00 9,8 6,1 5 3 11 6 N 1015,4 12 0 0,0
20.02.2018 07:00:00 8,4 5,1 2 1 9 5 WSW 1015,2 10 0 -
20.02.2018 06:00:00 8,5 5,1 1 1 11 6 NE 1015,4 10 0 0,0
20.02.2018 05:00:00 9,1 5,6 6 3 9 5 NNW 1015,5 14 0 0,0
20.02.2018 04:00:00 9,5 6,1 3 1 10 5 N 1015,9 15 0 0,0
20.02.2018 03:00:00 9,6 6,1 5 3 15 8 WNW 1016,3 16 0 0,0
20.02.2018 02:00:00 10,0 6,7 9 5 14 8 NW 1016,8 16 0 0,0
20.02.2018 01:00:00 10,2 6,8 6 4 11 6 NNW 1016,9 14 0 -
20.02.2018 00:00:00 10,3 7,0 6 4 10 5 NW 1017,3 19 0 0,0
19.02.2018 23:00:00 11,1 7,8 5 3 9 5 NNW 1017,7 18 0 0,0
19.02.2018 22:00:00 11,9 8,4 6 3 8 5 NNW 1017,9 18 0 0,0
19.02.2018 21:00:00 12,5 8,5 4 2 8 4 NNW 1017,8 19 0 0,0
19.02.2018 20:00:00 13,7 9,2 3 2 8 4 SW 1017,7 20 0 0,0
19.02.2018 19:00:00 14,2 9,4 4 2 13 7 S 1017,3 20 4 -
19.02.2018 18:00:00 15,0 9,3 6 3 13 7 S 1016,9 20 38 0,0
19.02.2018 17:00:00 15,5 9,2 8 4 16 9 S 1016,7 20 60 0,0
19.02.2018 16:00:00 15,8 9,0 9 5 18 10 S 1016,8 20 60 0,0
19.02.2018 15:00:00 16,3 7,3 9 5 18 10 SSE 1016,9 20 60 0,0
19.02.2018 14:00:00 15,7 8,0 8 5 16 8 SSE 1017,4 20 46 0,0
19.02.2018 13:00:00 15,6 7,1 7 4 12 7 SSE 1018,0 20 0 -
19.02.2018 12:00:00 - - - - - - - - - - -
19.02.2018 11:00:00 15,0 8,0 2 1 9 5 S 1018,4 20 0 0,0
19.02.2018 10:00:00 13,7 9,2 4 2 8 4 N 1018,5 20 0 0,0
19.02.2018 09:00:00 12,2 8,3 3 2 7 4 NW 1018,4 20 0 0,0
19.02.2018 08:00:00 11,6 7,6 4 2 8 4 N 1018,1 18 0 0,0
19.02.2018 07:00:00 12,2 7,8 1 1 6 3 NE 1017,8 17 0 -
19.02.2018 06:00:00 12,7 8,1 4 2 7 4 ENE 1017,8 20 0 0,0
19.02.2018 05:00:00 12,6 8,3 1 1 5 3 S 1017,7 20 0 0,0
19.02.2018 04:00:00 12,6 8,1 4 2 7 4 ESE 1017,8 20 0 0,0
19.02.2018 03:00:00 12,7 8,1 4 2 11 6 NNE 1018,5 20 0 0,0
19.02.2018 02:00:00 12,5 8,4 5 3 8 5 N 1019,0 20 0 0,0
19.02.2018 01:00:00 12,8 8,7 1 1 6 3 N 1019,5 20 0 -
19.02.2018 00:00:00 13,0 8,9 5 3 8 4 NW 1019,8 20 0 0,0
18.02.2018 23:00:00 13,5 8,8 3 2 11 6 ENE 1020,1 20 0 0,0
18.02.2018 22:00:00 13,8 8,7 3 2 14 8 E 1020,5 20 0 0,0

tt = Température de l'air
td = dewpoint
ff = Vitesse du vent
fx = gusts
dd = Direction du vent
ppp = reduced air pressure
vv = visibility
sd = Ensoleillement
rr = Quantités de précipitations

stations d'obs. à proximité